Location: B?dargowo
(53.3916°N, 14.4413°E)
Time: 09:39:33
(UTC+00:00)

Cosmos 2369 Rocket - Pass Details

Date: 05 February 2023
Orbit: 829 x 851 km, 71.0° (Epoch: 19 March)

Event Time Altitude Azimuth Distance (km) Brightness Sun altitude
Rises 19:40:56 0° 328° (NNW) 3,384 6.0 -33.9°
Reaches altitude 10° 19:43:30 10° 335° (NNW) 2,448 5.1 -34.2°
Enters shadow 19:45:56 25° 349° (N) 1,643 3.9 -34.6°
